Regional Weather Roundup
Issued by NWS Cleveland, OH

Home | Current Version | Previous Version | Graphics & Text | Print | Product List | Glossary On
Versions: 1 2 3 4 5 6 7 8 9 10 11 12 13 14 15 16 17 18 19 20 21 22 23 24 25 26 27 28 29 30 31 32 33 34 35 36 37 38 39 40 41 42 43 44 45 46 47 48 49 50
000
ASUS41 KCLE 281312
RWRCLE
OHIO REGIONAL WEATHER ROUNDUP
NATIONAL WEATHER SERVICE WILMINGTON, OH
900 AM EDT TUE MAR 28 2017

NOTE: "FAIR" INDICATES FEW OR NO CLOUDS BELOW 12,000 FEET WITH NO
SIGNIFICANT WEATHER AND/OR OBSTRUCTIONS TO VISIBILITY.

OHZ001>008-015>018-024>027-034-035-043-044-281400-
   NORTHWEST OHIO

CITY           SKY/WX    TMP DP  RH WIND       PRES   REMARKS
DEFIANCE       CLOUDY    47  43  86 N9        29.99R
FINDLAY        CLOUDY    46  42  86 NE13      29.96R
TOLEDO EXPRESS CLOUDY    44  42  93 NE7       29.99R
TOLEDO EXEC    CLOUDY    43  41  93 NE9       30.01R
LIMA           CLOUDY    48  48 100 NE9       29.95R FOG
$$

OHZ009>014-019>023-028>033-038-089-281400-
   NORTHEAST OHIO

CITY           SKY/WX    TMP DP  RH WIND       PRES   REMARKS
CLE-HOPKINS    CLOUDY    44  40  85 N9        29.98R FOG
CLE-LAKEFRONT  FOG       41  40  96 NE7       29.95R VSB 1
CUY CO. ARPT   DRIZZLE   45  45 100 NE9       29.95R FOG
LORAIN-ELYRIA  CLOUDY    42  39  89 N9        29.96R
ASHTABULA      CLOUDY    47  46  97 N7        29.93R FOG
AKRON-CANTON   LGT RAIN  52  49  89 N13       29.89R FOG
WOOSTER        LGT RAIN  48  46  93 N15       29.92R FOG
MANSFIELD      CLOUDY    46  46 100 N13       29.93R FOG
YOUNGSTOWN     LGT RAIN  51  49  92 N9        29.90R FOG
$$

OHZ042-051>053-060>062-070>072-077>081-281400-
  SOUTHWEST OHIO

CITY           SKY/WX    TMP DP  RH WIND       PRES   REMARKS
CINC-COVINGTON CLOUDY    56  55  97 N14       29.91R FOG
CINC-LUNKEN    CLOUDY    58  56  93 NW8       29.92R
HAMILTON       CLOUDY    56  54  93 N10       29.92R FOG
DAYTON         CLOUDY    52  51  97 N16       29.94R FOG
WRIGHT-PAT AFB DRIZZLE   54  54 100 N12       29.92R
DAYTON GENERAL LGT RAIN  54  53  97 N17G26    29.91R VSB 1
WILMINGTON     CLOUDY    55  55 100 W6        29.90R FOG
$$

OHZ036-037-039>041-045>050-054>059-063>069-073>076-082>088-281400-
  CENTRAL AND SOUTHEAST OHIO

CITY           SKY/WX    TMP DP  RH WIND       PRES   REMARKS
COLUMBUS       CLOUDY    56  54  93 N8        29.90R
OSU AIRPORT    CLOUDY    54  53  97 N10       29.90R FOG
BOLTON FIELD   FOG       54  54 100 N6        29.91R VSB 1
RICKENBACK AFB RAIN      54  55 100 NW8       29.90R
NEWARK         CLOUDY    56  53  90 N6        29.89R
MARION         CLOUDY    48  46  93 NE16      29.94R FOG
LANCASTER      CLOUDY    59  55  87 W6        29.90R
ZANESVILLE     CLOUDY    57  54  89 W6        29.88R
NEW PHILLY     CLOUDY    56  56 100 CALM      29.87R FOG
$$




USA.gov is the U.S. government's official web portal to all federal, state and local government web resources and services.